Home > Weather > Kannauj > Past weeks

Flag for India Weather for the Past 2 Weeks in Kannauj, Uttar Pradesh, India

Now
75 °F

Haze.


Feels Like: 77 °F
Forecast: 80 / 108 °F
Wind: No wind

Location: Lucknow / Amausi

Current Time: Apr 29, 2016 at 6:19:41 AM

Latest Report: Apr 29, 2016 at 5:30 AM


Visibility: 2 mi

Pressure: 29.65 "Hg

Humidity: 36%

Dew Point: 46 °F

Location of KannaujLocation

Historic Weather in Kannauj — Graph

°F

Kannauj Temperature Yesterday

Maximum temperature yesterday: 111 °F (at 1:30 PM)
Minimum temperature yesterday: 79 °F (at 6:00 AM)
Average temperature yesterday: 98 °F

High & Low Weather Summary for the Past Weeks

 TemperatureHumidityPressure
High111 °F (Apr 15, 3:00 PM)79% (Apr 18, 6:30 AM)29.77 "Hg (Apr 18, 6:30 AM)
Low72 °F (Apr 25, 6:00 AM)8% (Apr 25, 12:30 PM)29.45 "Hg (Apr 23, 4:00 AM)
Average95 °F23%29.63 "Hg
* Reported Apr 14 4:00 AM — Apr 29 4:00 AM, Kannauj, Weather by CustomWeather, © 2016

Note: Actual official high and low records may vary slightly from our data, if they occured in-between our weather recording intervals... More about our weather records

Advertising

Kannauj Weather History for the Previous 24 Hours

Scroll right to see more
 ConditionsComfort  
Time TempWeatherWind HumidityBarometerVisibility
4:00 AM
Fri, Apr 29
81 °FHaze.No wind28%29.62 "Hg2 mi
3:00 AM82 °FHaze.No wind26%29.62 "Hg2 mi
2:00 AM86 °FHaze.3 mph24%29.62 "Hg2 mi
1:00 AM86 °FHaze.3 mph24%29.65 "Hg2 mi
12:00 AM88 °FHaze.2 mph22%29.65 "Hg2 mi
11:00 PM
Thu, Apr 28
88 °FHaze.No wind22%29.65 "Hg2 mi
10:00 PM93 °FHaze.No wind17%29.65 "Hg2 mi
9:00 PM93 °FHaze.2 mph17%29.65 "Hg2 mi
8:00 PM95 °FHaze.No wind15%29.62 "Hg2 mi
7:30 PM95 °FHaze.No wind15%29.62 "Hg2 mi
7:00 PM100 °FDuststorm.3 mph12%29.62 "Hg3 mi
6:30 PM102 °FDuststorm.3 mph11%29.62 "Hg3 mi
6:00 PM106 °FDuststorm.6 mph9%29.59 "Hg3 mi
5:30 PM108 °FDuststorm.9 mph9%29.59 "Hg3 mi
5:00 PM109 °FDuststorm.12 mph8%29.59 "Hg3 mi
4:30 PM109 °FPassing clouds.13 mph8%29.59 "Hg3 mi
4:00 PM109 °FPassing clouds.9 mph8%29.59 "Hg3 mi
3:30 PM109 °FPassing clouds.10 mph8%29.59 "Hg3 mi
2:30 PM109 °FScattered clouds.13 mph8%29.62 "Hg3 mi
1:30 PM111 °FScattered clouds.12 mph8%29.65 "Hg3 mi
1:00 PM109 °FDuststorm.12 mph9%29.65 "Hg3 mi
12:30 PM109 °FDuststorm.7 mph9%29.65 "Hg3 mi
11:00 AM106 °FHaze.8 mph11%29.68 "Hg3 mi
10:30 AM104 °FHaze.3 mph15%29.68 "Hg3 mi
9:30 AM100 °FHaze.6 mph18%29.68 "Hg3 mi
9:00 AM97 °FHaze.3 mph20%29.68 "Hg2 mi
8:30 AM93 °FHaze.5 mph21%29.68 "Hg2 mi
8:00 AM90 °FScattered clouds.No wind27%29.68 "Hg2 mi
7:00 AM82 °FPartly sunny.No wind32%29.65 "Hg2 mi
6:30 AM79 °FPartly sunny.No wind39%29.65 "Hg2 mi
6:00 AM79 °FPartly sunny.No wind34%29.65 "Hg2 mi
Weather by CustomWeather, © 2016

See weather overviewHow to use our weather pages